Waupaca, WI

12:33 PM CDT on June 22, 2017 (GMT -0500)
Waupaca Municipal

Weather History for KPCZ - October, 2010

Change the Weather History Date:

Tuesday, October 12, 2010

  Actual Average Record
Temperature  
Mean Temperature 60 °F -  
Max Temperature 76 °F 61 °F 80 °F (2008)
Min Temperature 43 °F 38 °F 21 °F (1967)
Degree Days  
Heating Degree Days 6    
Growing Degree Days 10 (Base 50)    
Moisture  
Dew Point 49 °F    
Average Humidity 73    
Maximum Humidity 94    
Minimum Humidity 42    
Precipitation  
Precipitation 0.00 in - - ()
Sea Level Pressure  
Sea Level Pressure 29.93 in    
Wind  
Wind Speed 1 mph (SSW)    
Max Wind Speed 9 mph    
Max Gust Speed 17 mph    
Visibility 6 miles    
Events Fog    
Averages and records for this station are not official NWS values.
T = Trace of Precipitation, MM = Missing Value Source: NWS Daily Summary

Daily Weather History Graph

Daily Weather History Graph

Search for Another Location

Airport or City:

Trip Planner

Search our weather history database for the weather conditions in past years. The results will help you decide how hot, cold, wet, or windy it might be!

Date:

Astronomy

Oct. 12, 2010 Rise Set
Actual Time 7:07 AM CDT 6:17 PM CDT
Civil Twilight 6:38 AM CDT 6:46 PM CDT
Nautical Twilight 6:04 AM CDT 7:19 PM CDT
Astronomical Twilight 5:30 AM CDT 7:53 PM CDT
Moon 12:52 PM CDT (10/12) 9:41 PM CDT (10/12)
Length of Visible Light 12h 08m
Length of Day
11h 09m
Waxing Crescent, 29% of the Moon is Illuminated
Oct 12
Waxing Crescent
Oct 14
First Quarter
Oct 22
Full
Oct 30
Last Quarter
Nov 5
New

Hourly Weather History & Observations

Time (CDT) Temp. Dew Point Humidity Pressure Visibility Wind Dir Wind Speed Gust Speed Precip Events Conditions
12:15 AM 50.9 °F 48.4 °F 91% 29.91 in 5.0 mi Calm Calm - N/A   Clear
12:35 AM 49.5 °F 47.1 °F 92% 29.91 in 4.0 mi Calm Calm - N/A   Clear
12:55 AM 50.0 °F 47.7 °F 92% 29.91 in 5.0 mi Calm Calm - N/A   Clear
1:15 AM 48.4 °F 46.2 °F 92% 29.91 in 5.0 mi Calm Calm - N/A   Clear
1:35 AM 49.1 °F 47.3 °F 93% 29.91 in 5.0 mi Calm Calm - N/A   Clear
1:55 AM 48.0 °F 46.0 °F 93% 29.92 in 5.0 mi Calm Calm - N/A   Clear
2:15 AM 48.2 °F 46.4 °F 93% 29.92 in 4.0 mi Calm Calm - N/A   Clear
2:35 AM 47.3 °F 45.1 °F 92% 29.92 in 4.0 mi Calm Calm - N/A   Clear
2:55 AM 47.3 °F 45.5 °F 93% 29.92 in 1.5 mi Calm Calm - N/A   Mist
3:15 AM 46.9 °F 45.1 °F 93% 29.92 in 2.0 mi Calm Calm - N/A   Clear
3:35 AM 45.7 °F 43.9 °F 93% 29.92 in 3.0 mi Calm Calm - N/A   Clear
4:15 AM 45.7 °F 43.9 °F 93% 29.93 in 1.2 mi Calm Calm - N/A   Mist
4:35 AM 45.7 °F 43.9 °F 93% 29.93 in 0.8 mi Calm Calm - N/A   Mist
4:55 AM 45.5 °F 43.7 °F 93% 29.93 in 1.2 mi Calm Calm - N/A   Mist
5:15 AM 45.0 °F 43.2 °F 93% 29.94 in 1.0 mi Calm Calm - N/A   Mist
5:35 AM 45.0 °F 43.2 °F 93% 29.94 in 1.2 mi Calm Calm - N/A   Mist
5:55 AM 44.8 °F 43.0 °F 93% 29.94 in 0.8 mi Calm Calm - N/A   Mist
6:15 AM 44.6 °F 42.8 °F 93% 29.94 in 4.0 mi Calm Calm - N/A   Clear
6:35 AM 43.9 °F 42.1 °F 93% 29.94 in 2.5 mi Calm Calm - N/A   Clear
6:55 AM 43.7 °F 42.1 °F 94% 29.94 in 0.2 mi Calm Calm - N/A Fog Fog
7:15 AM 43.7 °F 41.9 °F 93% 29.94 in 0.2 mi Calm Calm - N/A Fog Fog
7:35 AM 44.6 °F 42.8 °F 93% 29.95 in 0.2 mi Calm Calm - N/A Fog Fog
7:55 AM 45.5 °F 43.9 °F 94% 29.95 in 0.2 mi Calm Calm - N/A Fog Fog
8:15 AM 46.4 °F 44.8 °F 94% 29.95 in 0.2 mi Calm Calm - N/A Fog Fog
8:35 AM 46.8 °F 45.1 °F 94% 29.96 in 0.2 mi Calm Calm - N/A Fog Fog
8:55 AM 48.2 °F 46.6 °F 94% 29.96 in 0.2 mi Calm Calm - N/A Fog Fog
9:15 AM 49.1 °F 47.5 °F 94% 29.96 in 0.2 mi Calm Calm - N/A Fog Fog
9:35 AM 50.0 °F 48.2 °F 94% 29.96 in 0.2 mi Calm Calm - N/A Fog Fog
9:55 AM 51.1 °F 49.5 °F 94% 29.96 in 1.5 mi Calm Calm - N/A   Overcast
10:15 AM 53.4 °F 51.6 °F 94% 29.96 in 7.0 mi Calm Calm - N/A   Mostly Cloudy
10:35 AM 55.0 °F 53.2 °F 94% 29.96 in 10.0 mi Calm Calm - N/A   Scattered Clouds
10:55 AM 56.7 °F 54.5 °F 92% 29.96 in 10.0 mi Calm Calm - N/A   Clear
11:15 AM 61.7 °F 49.1 °F 63% 29.96 in 10.0 mi South 4.6 mph - N/A   Clear
11:35 AM 63.3 °F 50.7 °F 63% 29.96 in 10.0 mi SSE 3.5 mph - N/A   Clear
11:55 AM 65.3 °F 50.5 °F 59% 29.96 in 10.0 mi Calm Calm - N/A   Clear
12:15 PM 67.5 °F 51.4 °F 56% 29.95 in 10.0 mi South 3.5 mph - N/A   Clear
12:35 PM 69.1 °F 51.4 °F 53% 29.95 in 10.0 mi SSW 3.5 mph - N/A   Clear
12:55 PM 70.9 °F 51.3 °F 50% 29.94 in 10.0 mi South 3.5 mph - N/A   Clear
1:15 PM 71.2 °F 50.7 °F 48% 29.94 in 10.0 mi Calm Calm - N/A   Clear
1:35 PM 73.0 °F 50.9 °F 46% 29.93 in 10.0 mi SSE 5.8 mph - N/A   Clear
1:55 PM 74.5 °F 51.3 °F 44% 29.93 in 10.0 mi SSE 3.5 mph - N/A   Clear
2:15 PM 74.8 °F 51.1 °F 43% 29.92 in 10.0 mi Calm Calm - N/A   Clear
2:35 PM 75.6 °F 51.6 °F 43% 29.92 in 10.0 mi SSE 5.8 mph - N/A   Clear
2:55 PM 75.4 °F 52.2 °F 44% 29.92 in 10.0 mi SSW 3.5 mph - N/A   Clear
3:15 PM 76.5 °F 52.2 °F 43% 29.91 in 10.0 mi South 5.8 mph - N/A   Clear
3:35 PM 76.3 °F 51.6 °F 42% 29.91 in 10.0 mi SSW 3.5 mph - N/A   Clear
3:55 PM 76.6 °F 52.3 °F 43% 29.91 in 7.0 mi South 6.9 mph - N/A   Clear
4:15 PM 76.5 °F 51.8 °F 42% 29.90 in 7.0 mi SSW 5.8 mph - N/A   Clear
4:35 PM 76.3 °F 52.3 °F 43% 29.90 in 7.0 mi South 6.9 mph - N/A   Clear
4:55 PM 75.7 °F 52.7 °F 45% 29.90 in 5.0 mi SSW 6.9 mph - N/A   Haze
5:15 PM 75.0 °F 53.1 °F 46% 29.90 in 5.0 mi SSW 5.8 mph - N/A   Haze
5:35 PM 72.7 °F 53.4 °F 51% 29.90 in 5.0 mi South 5.8 mph - N/A   Haze
5:55 PM 71.1 °F 53.6 °F 54% 29.90 in 7.0 mi South 4.6 mph - N/A   Clear
6:15 PM 68.2 °F 53.6 °F 60% 29.90 in 4.0 mi Calm Calm - N/A   Haze
6:35 PM 67.1 °F 53.1 °F 61% 29.90 in 3.0 mi Calm Calm - N/A   Haze
6:55 PM 66.2 °F 52.7 °F 62% 29.90 in 10.0 mi Calm Calm - N/A   Clear
7:15 PM 64.0 °F 52.7 °F 67% 29.90 in 4.0 mi SSW 3.5 mph - N/A   Haze
7:35 PM 63.3 °F 52.9 °F 69% 29.90 in 7.0 mi Calm Calm - N/A   Clear
7:55 PM 62.2 °F 53.1 °F 72% 29.91 in 10.0 mi WNW 5.8 mph - N/A   Scattered Clouds
8:15 PM 68.0 °F 54.0 °F 61% 29.92 in 10.0 mi West 3.5 mph - N/A   Mostly Cloudy
8:35 PM 67.3 °F 53.2 °F 61% 29.93 in 10.0 mi West 3.5 mph - N/A   Mostly Cloudy
8:55 PM 67.5 °F 51.6 °F 57% 29.93 in 10.0 mi West 6.9 mph - N/A   Mostly Cloudy
9:15 PM 68.5 °F 52.7 °F 57% 29.94 in 10.0 mi WNW 9.2 mph 17.3 mph N/A   Mostly Cloudy
9:35 PM 66.6 °F 53.6 °F 63% 29.96 in 10.0 mi NW 9.2 mph - N/A   Scattered Clouds
9:55 PM 66.2 °F 54.0 °F 65% 29.96 in 10.0 mi NW 8.1 mph - N/A   Mostly Cloudy
10:15 PM 64.9 °F 54.1 °F 68% 29.97 in 10.0 mi NNW 12.7 mph - N/A   Mostly Cloudy
10:35 PM 64.6 °F 53.6 °F 68% 29.97 in 10.0 mi NNW 12.7 mph 18.4 mph N/A   Scattered Clouds
10:55 PM 62.6 °F 50.4 °F 64% 29.99 in 10.0 mi NNW 16.1 mph 25.3 mph N/A   Mostly Cloudy
11:15 PM 61.5 °F 49.5 °F 65% 29.99 in 10.0 mi NNW 12.7 mph 19.6 mph N/A   Scattered Clouds
11:35 PM 60.8 °F 49.3 °F 66% 30.00 in 10.0 mi NW 11.5 mph 20.7 mph N/A   Scattered Clouds
11:55 PM 59.9 °F 49.6 °F 69% 30.01 in 10.0 mi NNW 11.5 mph - N/A   Scattered Clouds